Time,TemperatureF,DewpointF,PressureIn,WindDirection,WindDirectionDegrees,WindSpeedMPH,WindSpeedGustMPH,Humidity,HourlyPrecipIn,Conditions,Clouds,dailyrainin,SoftwareType,DateUTC
2013-07-21 00:01:00,69.3,64.6,29.88,WSW,244,2.3,0.0,85,0.00,RA,,0.00,WeatherDisplay:10.37,2013-07-21 04:01:00,
2013-07-21 00:03:00,69.2,64.5,29.88,WSW,244,1.2,0.0,85,0.00,RA,,0.00,WeatherDisplay:10.37,2013-07-21 04:03:00,
2013-07-21 00:08:00,69.1,64.4,29.88,WSW,244,2.3,2.3,85,0.00,RA,,0.00,WeatherDisplay:10.37,2013-07-21 04:08:00,
2013-07-21 00:13:00,69.0,64.6,29.88,WSW,244,1.0,1.0,86,0.00,CLR,,0.00,WeatherDisplay:10.37,2013-07-21 04:13:00,
2013-07-21 00:18:00,69.0,64.6,29.88,WSW,244,0.0,0.0,86,0.00,CLR,,0.00,WeatherDisplay:10.37,2013-07-21 04:18:00,
2013-07-21 00:23:00,69.0,64.6,29.88,WSW,242,2.3,0.0,86,0.00,CLR,,0.00,WeatherDisplay:10.37,2013-07-21 04:23:00,
2013-07-21 00:28:00,69.2,64.8,29.88,WSW,242,0.0,0.0,86,0.00,CLR,,0.00,WeatherDisplay:10.37,2013-07-21 04:28:00,
2013-07-21 00:33:00,69.2,64.8,29.88,WSW,242,2.3,2.3,86,0.00,CLR,,0.00,WeatherDisplay:10.37,2013-07-21 04:33:00,
2013-07-21 00:38:00,69.2,64.8,29.88,WSW,242,1.2,0.0,86,0.00,CLR,,0.00,WeatherDisplay:10.37,2013-07-21 04:38:00,
2013-07-21 00:43:00,69.1,64.7,29.88,WSW,242,1.0,0.0,86,0.00,CLR,,0.00,WeatherDisplay:10.37,2013-07-21 04:43:00,
2013-07-21 00:48:00,69.1,64.7,29.88,WSW,242,3.5,3.5,86,0.00,CLR,,0.00,WeatherDisplay:10.37,2013-07-21 04:48:00,
2013-07-21 00:53:00,69.1,64.7,29.88,WSW,242,1.2,1.2,86,0.00,CLR,,0.00,WeatherDisplay:10.37,2013-07-21 04:53:00,
2013-07-21 00:58:00,69.0,64.6,29.88,WSW,242,3.5,3.5,86,0.00,CLR,,0.00,WeatherDisplay:10.37,2013-07-21 04:58:00,
2013-07-21 01:03:00,69.0,64.6,29.88,SW,231,2.3,2.3,86,0.00,CLR,,0.00,WeatherDisplay:10.37,2013-07-21 05:03:00,
2013-07-21 01:08:00,69.0,64.6,29.88,SW,226,1.2,0.0,86,0.00,CLR,,0.00,WeatherDisplay:10.37,2013-07-21 05:08:00,
2013-07-21 01:13:00,69.0,64.6,29.88,SW,226,1.2,1.2,86,0.00,CLR,,0.00,WeatherDisplay:10.37,2013-07-21 05:13:00,
2013-07-21 01:18:00,68.9,64.5,29.88,SW,226,3.5,3.5,86,0.00,CLR,,0.00,WeatherDisplay:10.37,2013-07-21 05:18:00,
2013-07-21 01:23:00,68.8,64.4,29.88,SW,226,4.0,4.0,86,0.00,CLR,,0.00,WeatherDisplay:10.37,2013-07-21 05:23:00,
2013-07-21 01:28:00,68.8,64.4,29.88,SSW,211,3.5,3.5,86,0.00,CLR,,0.00,WeatherDisplay:10.37,2013-07-21 05:28:00,
2013-07-21 01:33:00,68.8,64.4,29.88,SW,221,2.3,0.0,86,0.00,CLR,,0.00,WeatherDisplay:10.37,2013-07-21 05:33:00,
2013-07-21 01:38:00,68.6,64.2,29.87,SSW,213,4.0,4.0,86,0.00,CLR,,0.00,WeatherDisplay:10.37,2013-07-21 05:38:00,
2013-07-21 01:43:00,68.6,64.2,29.88,SW,229,4.0,4.0,86,0.00,CLR,,0.00,WeatherDisplay:10.37,2013-07-21 05:43:00,
2013-07-21 01:48:00,68.5,64.1,29.88,SSW,200,4.0,4.0,86,0.00,CLR,,0.00,WeatherDisplay:10.37,2013-07-21 05:48:00,
2013-07-21 01:53:00,68.4,64.0,29.88,SW,214,3.5,3.5,86,0.00,CLR,,0.00,WeatherDisplay:10.37,2013-07-21 05:53:00,
2013-07-21 01:58:00,68.3,64.3,29.88,SW,215,4.0,4.0,87,0.00,CLR,,0.00,WeatherDisplay:10.37,2013-07-21 05:58:00,
2013-07-21 02:03:00,68.3,64.3,29.88,SSW,213,4.0,4.0,87,0.00,CLR,,0.00,WeatherDisplay:10.37,2013-07-21 06:03:00,
2013-07-21 02:08:00,68.3,63.9,29.88,SW,221,3.5,3.5,86,0.00,CLR,,0.00,WeatherDisplay:10.37,2013-07-21 06:08:00,
2013-07-21 02:13:00,68.2,64.2,29.88,SSW,211,4.0,4.0,87,0.00,CLR,,0.00,WeatherDisplay:10.37,2013-07-21 06:13:00,
2013-07-21 02:18:00,68.2,64.2,29.87,SSW,213,4.0,4.0,87,0.00,CLR,,0.00,WeatherDisplay:10.37,2013-07-21 06:18:00,
2013-07-21 02:23:00,68.1,64.1,29.87,SSW,200,4.0,4.0,87,0.00,CLR,,0.00,WeatherDisplay:10.37,2013-07-21 06:23:00,
2013-07-21 02:28:00,68.1,64.1,29.87,SW,219,4.0,4.0,87,0.00,CLR,,0.00,WeatherDisplay:10.37,2013-07-21 06:28:00,
2013-07-21 02:33:00,68.0,64.0,29.88,SW,217,3.5,3.5,87,0.00,CLR,,0.00,WeatherDisplay:10.37,2013-07-21 06:33:00,
2013-07-21 02:38:00,67.9,63.9,29.88,SSW,203,4.0,4.0,87,0.00,CLR,,0.00,WeatherDisplay:10.37,2013-07-21 06:38:00,
2013-07-21 02:43:00,67.8,63.8,29.88,SSW,211,2.3,0.0,87,0.00,CLR,,0.00,WeatherDisplay:10.37,2013-07-21 06:43:00,
2013-07-21 02:48:00,67.7,63.7,29.88,SSW,210,4.0,4.0,87,0.00,CLR,,0.00,WeatherDisplay:10.37,2013-07-21 06:48:00,
2013-07-21 02:53:00,67.7,63.7,29.88,SW,223,3.5,3.5,87,0.00,CLR,,0.00,WeatherDisplay:10.37,2013-07-21 06:53:00,
2013-07-21 02:58:00,67.6,63.6,29.88,SSW,202,3.5,3.5,87,0.00,CLR,,0.00,WeatherDisplay:10.37,2013-07-21 06:58:00,
2013-07-21 03:03:00,67.7,63.7,29.88,SSW,197,6.0,6.0,87,0.00,CLR,,0.00,WeatherDisplay:10.37,2013-07-21 07:03:00,
2013-07-21 03:08:00,67.7,63.7,29.87,SSW,200,5.0,5.0,87,0.00,CLR,,0.00,WeatherDisplay:10.37,2013-07-21 07:08:00,
2013-07-21 03:13:00,67.6,63.6,29.87,SW,222,4.0,4.0,87,0.00,CLR,,0.00,WeatherDisplay:10.37,2013-07-21 07:13:00,
2013-07-21 03:18:00,67.6,63.6,29.87,SSW,211,4.0,4.0,87,0.00,CLR,,0.00,WeatherDisplay:10.37,2013-07-21 07:18:00,
2013-07-21 03:23:00,67.6,63.6,29.87,SSW,196,3.0,3.0,87,0.00,CLR,,0.00,WeatherDisplay:10.37,2013-07-21 07:23:00,
2013-07-21 03:28:00,67.7,63.7,29.88,South,191,6.0,6.0,87,0.00,CLR,,0.00,WeatherDisplay:10.37,2013-07-21 07:28:00,
2013-07-21 03:33:00,67.7,63.7,29.88,SSW,205,4.0,4.0,87,0.00,CLR,,0.00,WeatherDisplay:10.37,2013-07-21 07:33:00,
2013-07-21 03:38:00,67.7,63.7,29.88,SSW,196,5.0,5.0,87,0.00,CLR,,0.00,WeatherDisplay:10.37,2013-07-21 07:38:00,
2013-07-21 03:43:00,67.7,63.7,29.88,SSW,195,3.0,3.0,87,0.00,CLR,,0.00,WeatherDisplay:10.37,2013-07-21 07:43:00,
2013-07-21 03:48:00,67.7,63.7,29.88,SSW,200,5.0,5.0,87,0.00,CLR,,0.00,WeatherDisplay:10.37,2013-07-21 07:48:00,
2013-07-21 03:53:00,67.6,63.6,29.87,SSW,205,5.0,5.0,87,0.00,CLR,,0.00,WeatherDisplay:10.37,2013-07-21 07:53:00,
2013-07-21 03:58:00,67.6,63.6,29.88,SSW,205,2.0,2.0,87,0.00,CLR,,0.00,WeatherDisplay:10.37,2013-07-21 07:58:00,
2013-07-21 04:03:00,67.6,63.9,29.88,SSW,199,5.0,5.0,88,0.00,CLR,,0.00,WeatherDisplay:10.37,2013-07-21 08:03:00,
2013-07-21 04:08:00,67.6,63.9,29.87,SSW,202,3.5,3.5,88,0.00,CLR,,0.00,WeatherDisplay:10.37,2013-07-21 08:08:00,
2013-07-21 04:13:00,67.5,63.8,29.87,South,188,5.0,5.0,88,0.00,CLR,,0.00,WeatherDisplay:10.37,2013-07-21 08:13:00,
2013-07-21 04:18:00,67.4,63.7,29.87,SSW,199,4.0,4.0,88,0.00,CLR,,0.00,WeatherDisplay:10.37,2013-07-21 08:18:00,
2013-07-21 04:23:00,67.3,63.6,29.88,SSW,192,0.0,0.0,88,0.00,CLR,,0.00,WeatherDisplay:10.37,2013-07-21 08:23:00,
2013-07-21 04:28:00,67.4,63.7,29.88,SSW,198,2.3,2.3,88,0.00,CLR,,0.00,WeatherDisplay:10.37,2013-07-21 08:28:00,
2013-07-21 04:33:00,67.4,63.7,29.87,SSW,199,1.2,0.0,88,0.00,CLR,,0.00,WeatherDisplay:10.37,2013-07-21 08:33:00,
2013-07-21 04:38:00,67.4,63.7,29.87,SSW,199,3.5,3.5,88,0.00,CLR,,0.00,WeatherDisplay:10.37,2013-07-21 08:38:00,
2013-07-21 04:43:00,67.5,63.8,29.87,South,190,5.0,5.0,88,0.00,CLR,,0.00,WeatherDisplay:10.37,2013-07-21 08:43:00,
2013-07-21 04:48:00,67.5,63.8,29.87,SSW,192,0.0,0.0,88,0.00,CLR,,0.00,WeatherDisplay:10.37,2013-07-21 08:48:00,
2013-07-21 04:53:00,67.4,63.7,29.87,SSW,194,1.2,0.0,88,0.00,CLR,,0.00,WeatherDisplay:10.37,2013-07-21 08:53:00,
2013-07-21 04:58:00,67.3,63.6,29.87,South,190,5.0,5.0,88,0.00,CLR,,0.00,WeatherDisplay:10.37,2013-07-21 08:58:00,
2013-07-21 05:03:00,67.3,63.6,29.87,South,190,4.0,4.0,88,0.00,CLR,,0.00,WeatherDisplay:10.37,2013-07-21 09:03:00,
2013-07-21 05:08:00,67.3,63.6,29.87,South,183,4.0,4.0,88,0.00,CLR,,0.00,WeatherDisplay:10.37,2013-07-21 09:08:00,
2013-07-21 05:13:00,67.4,63.7,29.88,South,180,4.0,4.0,88,0.00,CLR,,0.00,WeatherDisplay:10.37,2013-07-21 09:13:00,
2013-07-21 05:18:00,67.4,63.7,29.88,SSW,196,3.5,3.5,88,0.00,CLR,,0.00,WeatherDisplay:10.37,2013-07-21 09:18:00,
2013-07-21 05:23:00,67.4,63.7,29.88,SSW,202,0.0,0.0,88,0.00,CLR,,0.00,WeatherDisplay:10.37,2013-07-21 09:23:00,
2013-07-21 05:28:00,67.3,63.6,29.88,SSW,202,2.3,2.3,88,0.00,CLR,,0.00,WeatherDisplay:10.37,2013-07-21 09:28:00,
2013-07-21 05:33:00,67.2,63.5,29.88,SSW,202,3.5,3.5,88,0.00,CLR,,0.00,WeatherDisplay:10.37,2013-07-21 09:33:00,
2013-07-21 05:38:00,67.2,63.5,29.88,SSW,202,2.0,2.0,88,0.00,CLR,,0.00,WeatherDisplay:10.37,2013-07-21 09:38:00,
2013-07-21 05:43:00,67.1,63.4,29.89,SSW,202,3.5,3.5,88,0.00,CLR,,0.00,WeatherDisplay:10.37,2013-07-21 09:43:00,
2013-07-21 05:48:00,67.1,63.4,29.89,SSW,200,4.0,4.0,88,0.00,CLR,,0.00,WeatherDisplay:10.37,2013-07-21 09:48:00,
2013-07-21 05:53:00,67.2,63.5,29.89,SSW,201,4.0,4.0,88,0.00,CLR,,0.00,WeatherDisplay:10.37,2013-07-21 09:53:00,
2013-07-21 05:58:00,67.2,63.5,29.89,West,266,1.2,0.0,88,0.00,CLR,,0.00,WeatherDisplay:10.37,2013-07-21 09:58:00,
2013-07-21 06:03:00,67.2,63.5,29.89,WSW,242,4.0,4.0,88,0.00,CLR,,0.00,WeatherDisplay:10.37,2013-07-21 10:03:00,
2013-07-21 06:08:00,67.2,63.5,29.90,WSW,242,1.2,1.2,88,0.00,CLR,,0.00,WeatherDisplay:10.37,2013-07-21 10:08:00,
2013-07-21 06:13:00,67.2,63.5,29.90,WSW,242,0.0,0.0,88,0.00,CLR,,0.00,WeatherDisplay:10.37,2013-07-21 10:13:00,
2013-07-21 06:18:00,67.3,63.6,29.89,WSW,242,1.2,0.0,88,0.00,CLR,,0.00,WeatherDisplay:10.37,2013-07-21 10:18:00,
2013-07-21 06:23:00,67.3,63.6,29.89,WSW,242,0.0,0.0,88,0.00,CLR,,0.00,WeatherDisplay:10.37,2013-07-21 10:23:00,
2013-07-21 06:28:00,67.3,63.6,29.89,WSW,240,2.3,2.3,88,0.00,CLR,,0.00,WeatherDisplay:10.37,2013-07-21 10:28:00,
2013-07-21 06:33:00,67.2,63.5,29.89,SSW,195,0.0,0.0,88,0.00,CLR,,0.00,WeatherDisplay:10.37,2013-07-21 10:33:00,
2013-07-21 06:38:00,67.3,63.6,29.89,SSW,200,7.0,7.0,88,0.00,CLR,,0.00,WeatherDisplay:10.37,2013-07-21 10:38:00,
2013-07-21 06:43:00,67.2,63.5,29.89,SSW,195,5.0,5.0,88,0.00,CLR,,0.00,WeatherDisplay:10.37,2013-07-21 10:43:00,
2013-07-21 06:48:00,67.2,63.5,29.89,SSW,202,1.2,1.2,88,0.00,CLR,,0.00,WeatherDisplay:10.37,2013-07-21 10:48:00,
2013-07-21 06:53:00,67.3,63.6,29.89,SSW,202,2.0,2.0,88,0.00,CLR,,0.00,WeatherDisplay:10.37,2013-07-21 10:53:00,
2013-07-21 06:58:00,67.5,63.8,29.90,SW,230,4.0,4.0,88,0.00,CLR,,0.00,WeatherDisplay:10.37,2013-07-21 10:58:00,
2013-07-21 07:03:00,67.5,63.8,29.90,SW,218,3.5,3.5,88,0.00,CLR,,0.00,WeatherDisplay:10.37,2013-07-21 11:03:00,
2013-07-21 07:08:00,67.4,63.7,29.90,SW,218,0.0,0.0,88,0.00,CLR,,0.00,WeatherDisplay:10.37,2013-07-21 11:08:00,
2013-07-21 07:13:00,67.5,63.8,29.90,SW,218,0.0,0.0,88,0.00,CLR,,0.00,WeatherDisplay:10.37,2013-07-21 11:13:00,
2013-07-21 07:18:00,67.6,63.9,29.90,SW,218,0.0,0.0,88,0.00,CLR,,0.00,WeatherDisplay:10.37,2013-07-21 11:18:00,
2013-07-21 07:23:00,67.6,63.9,29.90,SW,218,0.0,0.0,88,0.00,CLR,,0.00,WeatherDisplay:10.37,2013-07-21 11:23:00,
2013-07-21 07:28:00,67.6,63.9,29.91,SW,218,3.0,3.0,88,0.00,CLR,,0.00,WeatherDisplay:10.37,2013-07-21 11:28:00,
2013-07-21 07:33:00,67.5,63.8,29.90,SW,221,1.2,1.2,88,0.00,CLR,,0.00,WeatherDisplay:10.37,2013-07-21 11:33:00,
2013-07-21 07:38:00,67.6,63.9,29.91,SW,221,3.0,3.0,88,0.00,CLR,,0.00,WeatherDisplay:10.37,2013-07-21 11:38:00,
2013-07-21 07:43:00,67.7,64.0,29.91,SW,232,4.0,4.0,88,0.00,CLR,,0.00,WeatherDisplay:10.37,2013-07-21 11:43:00,
2013-07-21 07:48:00,67.8,64.1,29.90,SW,219,4.0,4.0,88,0.00,CLR,,0.00,WeatherDisplay:10.37,2013-07-21 11:48:00,
2013-07-21 07:53:00,67.8,64.1,29.90,SSW,207,4.0,4.0,88,0.01,RA,,0.01,WeatherDisplay:10.37,2013-07-21 11:53:00,
2013-07-21 07:58:00,67.9,64.2,29.90,SSW,207,1.2,0.0,88,0.01,RA,,0.01,WeatherDisplay:10.37,2013-07-21 11:58:00,
2013-07-21 08:03:00,68.0,64.3,29.90,SSW,207,1.2,1.2,88,0.01,CLR,,0.01,WeatherDisplay:10.37,2013-07-21 12:03:00,
2013-07-21 08:08:00,68.3,64.6,29.91,SSW,207,1.0,1.0,88,0.01,CLR,,0.01,WeatherDisplay:10.37,2013-07-21 12:08:00,
2013-07-21 08:13:00,68.3,64.6,29.91,SW,223,3.5,3.5,88,0.01,CLR,,0.01,WeatherDisplay:10.37,2013-07-21 12:13:00,
2013-07-21 08:18:00,68.3,64.6,29.91,SW,223,0.0,0.0,88,0.01,CLR,,0.01,WeatherDisplay:10.37,2013-07-21 12:18:00,
2013-07-21 08:23:00,68.3,64.6,29.91,SW,223,0.0,0.0,88,0.01,CLR,,0.01,WeatherDisplay:10.37,2013-07-21 12:23:00,
2013-07-21 08:28:00,68.6,64.9,29.91,SW,223,0.0,0.0,88,0.01,CLR,,0.01,WeatherDisplay:10.37,2013-07-21 12:28:00,
2013-07-21 08:33:00,68.6,64.9,29.92,SW,224,0.0,0.0,88,0.01,CLR,,0.01,WeatherDisplay:10.37,2013-07-21 12:33:00,
2013-07-21 08:38:00,69.1,65.4,29.92,SW,222,3.5,3.5,88,0.01,CLR,,0.01,WeatherDisplay:10.37,2013-07-21 12:38:00,
2013-07-21 08:43:00,69.5,65.8,29.91,SSW,210,5.0,5.0,88,0.01,CLR,,0.01,WeatherDisplay:10.37,2013-07-21 12:43:00,
2013-07-21 08:48:00,69.8,66.1,29.91,SSW,209,5.0,5.0,88,0.01,CLR,,0.01,WeatherDisplay:10.37,2013-07-21 12:48:00,
2013-07-21 08:53:00,69.7,66.0,29.91,SW,223,4.0,4.0,88,0.00,CLR,,0.01,WeatherDisplay:10.37,2013-07-21 12:53:00,
2013-07-21 08:58:00,69.6,65.9,29.91,South,181,6.0,6.0,88,0.00,CLR,,0.01,WeatherDisplay:10.37,2013-07-21 12:58:00,
2013-07-21 09:03:00,69.5,65.8,29.91,SSW,195,4.0,4.0,88,0.00,CLR,,0.01,WeatherDisplay:10.37,2013-07-21 13:03:00,
2013-07-21 09:08:00,69.7,66.0,29.91,South,190,3.5,3.5,88,0.00,CLR,,0.01,WeatherDisplay:10.37,2013-07-21 13:08:00,
2013-07-21 09:13:00,69.8,66.1,29.91,South,185,4.0,4.0,88,0.00,CLR,,0.01,WeatherDisplay:10.37,2013-07-21 13:13:00,
2013-07-21 09:18:00,69.9,66.2,29.91,SSW,205,1.2,0.0,88,0.00,CLR,,0.01,WeatherDisplay:10.37,2013-07-21 13:18:00,
2013-07-21 09:23:00,69.9,66.2,29.91,SSW,205,2.0,2.0,88,0.00,CLR,,0.01,WeatherDisplay:10.37,2013-07-21 13:23:00,
2013-07-21 09:28:00,70.0,66.3,29.91,SSW,205,1.0,0.0,88,0.00,CLR,,0.01,WeatherDisplay:10.37,2013-07-21 13:28:00,
2013-07-21 09:33:00,70.3,66.6,29.92,SW,225,2.3,2.3,88,0.00,CLR,,0.01,WeatherDisplay:10.37,2013-07-21 13:33:00,
2013-07-21 09:38:00,70.8,67.1,29.92,SSW,208,4.0,4.0,88,0.00,CLR,,0.01,WeatherDisplay:10.37,2013-07-21 13:38:00,
2013-07-21 09:43:00,70.9,67.2,29.92,SSW,212,3.5,3.5,88,0.00,CLR,,0.01,WeatherDisplay:10.37,2013-07-21 13:43:00,
2013-07-21 09:48:00,71.0,66.9,29.92,SSW,213,1.2,0.0,87,0.00,CLR,,0.01,WeatherDisplay:10.37,2013-07-21 13:48:00,
2013-07-21 09:53:00,71.3,67.2,29.92,West,264,3.5,0.0,87,0.00,CLR,,0.01,WeatherDisplay:10.37,2013-07-21 13:53:00,
2013-07-21 09:58:00,71.5,67.4,29.92,West,265,3.5,3.5,87,0.00,CLR,,0.01,WeatherDisplay:10.37,2013-07-21 13:58:00,
2013-07-21 10:03:00,71.5,67.1,29.92,West,267,1.2,0.0,86,0.00,CLR,,0.01,WeatherDisplay:10.37,2013-07-21 14:03:00,
2013-07-21 10:08:00,71.9,67.5,29.92,SW,219,3.5,3.5,86,0.00,CLR,,0.01,WeatherDisplay:10.37,2013-07-21 14:08:00,
2013-07-21 10:13:00,72.2,67.4,29.92,SW,230,4.6,4.6,85,0.00,CLR,,0.01,WeatherDisplay:10.37,2013-07-21 14:13:00,
2013-07-21 10:18:00,72.6,67.8,29.92,WSW,250,6.0,6.0,85,0.00,CLR,,0.01,WeatherDisplay:10.37,2013-07-21 14:18:00,
2013-07-21 10:23:00,72.8,68.0,29.92,SW,233,5.8,5.8,85,0.00,CLR,,0.01,WeatherDisplay:10.37,2013-07-21 14:23:00,
2013-07-21 10:28:00,72.9,67.8,29.92,SW,227,5.0,5.0,84,0.00,CLR,,0.01,WeatherDisplay:10.37,2013-07-21 14:28:00,
2013-07-21 10:33:00,73.1,68.0,29.92,West,267,3.5,3.5,84,0.00,CLR,,0.01,WeatherDisplay:10.37,2013-07-21 14:33:00,
2013-07-21 10:38:00,73.4,67.9,29.92,SW,219,4.0,4.0,83,0.00,CLR,,0.01,WeatherDisplay:10.37,2013-07-21 14:38:00,
2013-07-21 10:43:00,73.7,68.2,29.92,West,260,1.2,1.2,83,0.00,CLR,,0.01,WeatherDisplay:10.37,2013-07-21 14:43:00,
2013-07-21 10:48:00,73.3,67.5,29.92,West,267,0.0,0.0,82,0.00,CLR,,0.01,WeatherDisplay:10.37,2013-07-21 14:48:00,
2013-07-21 10:53:00,73.5,67.7,29.92,WSW,253,4.0,4.0,82,0.00,CLR,,0.01,WeatherDisplay:10.37,2013-07-21 14:53:00,
2013-07-21 10:58:00,73.8,68.0,29.92,SW,229,4.0,4.0,82,0.00,CLR,,0.01,WeatherDisplay:10.37,2013-07-21 14:58:00,
2013-07-21 11:03:00,74.1,68.3,29.92,West,271,3.5,3.5,82,0.00,CLR,,0.01,WeatherDisplay:10.37,2013-07-21 15:03:00,
2013-07-21 11:08:00,74.1,68.3,29.92,SW,227,4.0,4.0,82,0.00,CLR,,0.01,WeatherDisplay:10.37,2013-07-21 15:08:00,
2013-07-21 11:13:00,74.2,68.3,29.92,SW,234,4.0,4.0,82,0.00,CLR,,0.01,WeatherDisplay:10.37,2013-07-21 15:13:00,
2013-07-21 11:18:00,74.5,68.3,29.92,WSW,242,2.3,2.3,81,0.00,CLR,,0.01,WeatherDisplay:10.37,2013-07-21 15:18:00,
2013-07-21 11:23:00,74.8,68.2,29.92,NW,310,2.3,0.0,80,0.00,CLR,,0.01,WeatherDisplay:10.37,2013-07-21 15:23:00,
2013-07-21 11:28:00,74.8,67.8,29.92,SW,226,3.5,3.5,79,0.00,CLR,,0.01,WeatherDisplay:10.37,2013-07-21 15:28:00,
2013-07-21 11:33:00,74.7,67.8,29.92,WSW,254,4.0,4.0,79,0.00,CLR,,0.01,WeatherDisplay:10.37,2013-07-21 15:33:00,
2013-07-21 11:38:00,74.8,68.2,29.93,WSW,250,4.0,4.0,80,0.00,CLR,,0.01,WeatherDisplay:10.37,2013-07-21 15:38:00,
2013-07-21 11:43:00,75.2,68.2,29.92,SW,234,6.0,6.0,79,0.00,CLR,,0.01,WeatherDisplay:10.37,2013-07-21 15:43:00,
2013-07-21 11:48:00,75.4,68.1,29.92,SW,217,0.0,0.0,78,0.00,CLR,,0.01,WeatherDisplay:10.37,2013-07-21 15:48:00,
2013-07-21 11:54:00,75.6,68.6,29.93,WSW,238,4.0,4.0,79,0.00,CLR,,0.01,WeatherDisplay:10.37,2013-07-21 15:54:00,
2013-07-21 11:59:00,76.1,69.1,29.93,SW,225,3.5,3.5,79,0.00,CLR,,0.01,WeatherDisplay:10.37,2013-07-21 15:59:00,
2013-07-21 12:04:00,76.0,68.3,29.92,South,186,6.0,6.0,77,0.00,CLR,,0.01,WeatherDisplay:10.37,2013-07-21 16:04:00,
2013-07-21 12:09:00,76.4,69.0,29.93,SSW,192,4.0,4.0,78,0.00,CLR,,0.01,WeatherDisplay:10.37,2013-07-21 16:09:00,
2013-07-21 12:14:00,76.3,68.6,29.93,South,190,7.0,7.0,77,0.00,CLR,,0.01,WeatherDisplay:10.37,2013-07-21 16:14:00,
2013-07-21 12:19:00,76.7,69.3,29.93,SW,221,6.9,6.9,78,0.00,CLR,,0.01,WeatherDisplay:10.37,2013-07-21 16:19:00,
2013-07-21 12:24:00,77.1,68.9,29.92,South,186,6.0,6.0,76,0.00,CLR,,0.01,WeatherDisplay:10.37,2013-07-21 16:24:00,
2013-07-21 12:29:00,77.8,70.0,29.92,SW,233,5.0,5.0,77,0.00,CLR,,0.01,WeatherDisplay:10.37,2013-07-21 16:29:00,
2013-07-21 12:34:00,77.8,69.6,29.92,SSW,199,6.0,6.0,76,0.00,CLR,,0.01,WeatherDisplay:10.37,2013-07-21 16:34:00,
2013-07-21 12:39:00,77.5,68.9,29.92,SW,217,7.0,7.0,75,0.00,CLR,,0.01,WeatherDisplay:10.37,2013-07-21 16:39:00,
2013-07-21 12:44:00,77.5,68.6,29.92,SSW,200,3.5,3.5,74,0.00,CLR,,0.01,WeatherDisplay:10.37,2013-07-21 16:44:00,
2013-07-21 12:49:00,77.7,69.5,29.92,West,261,4.0,4.0,76,0.00,CLR,,0.01,WeatherDisplay:10.37,2013-07-21 16:49:00,
2013-07-21 12:54:00,77.7,69.5,29.92,SW,236,6.0,6.0,76,0.00,CLR,,0.01,WeatherDisplay:10.37,2013-07-21 16:54:00,
2013-07-21 12:59:00,78.1,69.9,29.92,SSW,206,3.5,3.5,76,0.00,CLR,,0.01,WeatherDisplay:10.37,2013-07-21 16:59:00,
2013-07-21 13:04:00,78.7,69.7,29.93,West,264,4.0,4.0,74,0.00,CLR,,0.01,WeatherDisplay:10.37,2013-07-21 17:04:00,
2013-07-21 13:09:00,78.7,69.7,29.92,SW,234,3.5,3.5,74,0.00,CLR,,0.01,WeatherDisplay:10.37,2013-07-21 17:09:00,
2013-07-21 13:14:00,78.8,69.0,29.92,WNW,301,0.0,0.0,72,0.00,CLR,,0.01,WeatherDisplay:10.37,2013-07-21 17:14:00,
2013-07-21 13:19:00,78.7,70.1,29.92,SW,223,6.0,6.0,75,0.00,CLR,,0.01,WeatherDisplay:10.37,2013-07-21 17:19:00,
2013-07-21 13:24:00,80.0,71.0,29.92,SW,215,8.0,8.0,74,0.00,CLR,,0.01,WeatherDisplay:10.37,2013-07-21 17:24:00,
2013-07-21 13:29:00,79.8,69.6,29.92,South,186,1.2,0.0,71,0.00,CLR,,0.01,WeatherDisplay:10.37,2013-07-21 17:29:00,
2013-07-21 13:34:00,79.5,69.7,29.91,SSW,199,2.3,2.3,72,0.00,CLR,,0.01,WeatherDisplay:10.37,2013-07-21 17:34:00,
2013-07-21 13:39:00,79.6,69.0,29.91,WSW,258,6.0,6.0,70,0.00,CLR,,0.01,WeatherDisplay:10.37,2013-07-21 17:39:00,
2013-07-21 13:44:00,80.2,70.4,29.92,SW,234,5.0,5.0,72,0.00,CLR,,0.01,WeatherDisplay:10.37,2013-07-21 17:44:00,
2013-07-21 13:49:00,80.2,69.5,29.91,SSW,194,9.2,9.2,70,0.00,CLR,,0.01,WeatherDisplay:10.37,2013-07-21 17:49:00,
2013-07-21 13:54:00,79.5,70.1,29.91,South,182,8.0,8.0,73,0.00,CLR,,0.01,WeatherDisplay:10.37,2013-07-21 17:54:00,
2013-07-21 13:59:00,79.2,69.4,29.91,SSW,207,7.0,7.0,72,0.00,CLR,,0.01,WeatherDisplay:10.37,2013-07-21 17:59:00,
2013-07-21 14:04:00,78.9,69.5,29.91,SW,236,5.0,5.0,73,0.00,CLR,,0.01,WeatherDisplay:10.37,2013-07-21 18:04:00,
2013-07-21 14:09:00,79.3,69.5,29.91,SSW,200,6.0,6.0,72,0.00,CLR,,0.01,WeatherDisplay:10.37,2013-07-21 18:09:00,
2013-07-21 14:14:00,79.5,70.1,29.91,WSW,248,3.5,3.5,73,0.00,CLR,,0.01,WeatherDisplay:10.37,2013-07-21 18:14:00,
2013-07-21 14:19:00,80.0,71.0,29.91,SSW,200,6.0,6.0,74,0.00,CLR,,0.01,WeatherDisplay:10.37,2013-07-21 18:19:00,
2013-07-21 14:24:00,80.6,70.7,29.91,SSW,194,9.2,9.2,72,0.00,CLR,,0.01,WeatherDisplay:10.37,2013-07-21 18:24:00,
2013-07-21 14:29:00,80.9,71.0,29.90,West,273,6.0,6.0,72,0.00,CLR,,0.01,WeatherDisplay:10.37,2013-07-21 18:29:00,
2013-07-21 14:34:00,80.2,70.4,29.90,WSW,240,5.8,5.8,72,0.00,CLR,,0.01,WeatherDisplay:10.37,2013-07-21 18:34:00,
2013-07-21 14:39:00,81.1,70.0,29.90,SSW,198,5.0,5.0,69,0.00,CLR,,0.01,WeatherDisplay:10.37,2013-07-21 18:39:00,
2013-07-21 14:44:00,82.0,71.2,29.89,SSW,213,6.0,6.0,70,0.00,CLR,,0.01,WeatherDisplay:10.37,2013-07-21 18:44:00,
2013-07-21 14:49:00,81.9,69.9,29.89,West,264,6.0,6.0,67,0.00,CLR,,0.01,WeatherDisplay:10.37,2013-07-21 18:49:00,
2013-07-21 14:54:00,81.1,70.4,29.89,West,268,6.0,6.0,70,0.00,CLR,,0.01,WeatherDisplay:10.37,2013-07-21 18:54:00,
2013-07-21 14:59:00,81.4,70.7,29.89,SW,233,10.4,10.4,70,0.00,CLR,,0.01,WeatherDisplay:10.37,2013-07-21 18:59:00,
2013-07-21 15:04:00,82.0,71.2,29.89,WSW,238,8.1,8.1,70,0.00,CLR,,0.01,WeatherDisplay:10.37,2013-07-21 19:04:00,
2013-07-21 15:09:00,82.1,70.5,29.89,SW,222,8.0,8.0,68,0.00,CLR,,0.01,WeatherDisplay:10.37,2013-07-21 19:09:00,
2013-07-21 15:14:00,82.1,69.6,29.89,WSW,244,5.0,5.0,66,0.00,CLR,,0.01,WeatherDisplay:10.37,2013-07-21 19:14:00,
2013-07-21 15:19:00,81.9,69.4,29.88,SSW,206,5.0,5.0,66,0.00,CLR,,0.01,WeatherDisplay:10.37,2013-07-21 19:19:00,
2013-07-21 15:24:00,81.9,70.3,29.88,SSW,205,5.0,5.0,68,0.00,CLR,,0.01,WeatherDisplay:10.37,2013-07-21 19:24:00,
2013-07-21 15:29:00,81.1,70.4,29.88,SW,231,7.0,7.0,70,0.00,CLR,,0.01,WeatherDisplay:10.37,2013-07-21 19:29:00,
2013-07-21 15:34:00,81.2,69.6,29.88,SW,229,7.0,7.0,68,0.00,CLR,,0.01,WeatherDisplay:10.37,2013-07-21 19:34:00,
2013-07-21 15:39:00,82.3,70.7,29.88,WSW,246,8.1,8.1,68,0.00,CLR,,0.01,WeatherDisplay:10.37,2013-07-21 19:39:00,
2013-07-21 15:44:00,81.2,69.6,29.88,SW,236,7.0,7.0,68,0.00,CLR,,0.01,WeatherDisplay:10.37,2013-07-21 19:44:00,
2013-07-21 15:49:00,81.1,70.8,29.88,WSW,256,5.8,5.8,71,0.00,CLR,,0.01,WeatherDisplay:10.37,2013-07-21 19:49:00,
2013-07-21 15:54:00,81.6,70.4,29.88,WSW,239,7.0,7.0,69,0.00,CLR,,0.01,WeatherDisplay:10.37,2013-07-21 19:54:00,
2013-07-21 15:59:00,81.7,70.1,29.88,SSW,192,7.0,7.0,68,0.00,CLR,,0.01,WeatherDisplay:10.37,2013-07-21 19:59:00,
2013-07-21 16:04:00,82.2,71.4,29.87,WSW,257,6.0,6.0,70,0.00,CLR,,0.01,WeatherDisplay:10.37,2013-07-21 20:04:00,
2013-07-21 16:09:00,82.4,71.2,29.87,West,271,11.5,11.5,69,0.00,CLR,,0.01,WeatherDisplay:10.37,2013-07-21 20:09:00,
2013-07-21 16:14:00,83.3,71.6,29.87,SSW,199,8.1,8.1,68,0.00,CLR,,0.01,WeatherDisplay:10.37,2013-07-21 20:14:00,
2013-07-21 16:19:00,83.1,70.1,29.87,SSW,196,7.0,7.0,65,0.00,CLR,,0.01,WeatherDisplay:10.37,2013-07-21 20:19:00,
2013-07-21 16:24:00,83.0,70.5,29.87,WSW,244,7.0,7.0,66,0.00,CLR,,0.01,WeatherDisplay:10.37,2013-07-21 20:24:00,
2013-07-21 16:29:00,82.0,69.5,29.87,West,265,4.0,4.0,66,0.00,CLR,,0.01,WeatherDisplay:10.37,2013-07-21 20:29:00,
2013-07-21 16:34:00,82.2,70.1,29.87,WSW,241,8.0,8.0,67,0.00,CLR,,0.01,WeatherDisplay:10.37,2013-07-21 20:34:00,
2013-07-21 16:39:00,83.0,71.3,29.86,SW,230,10.0,10.0,68,0.00,CLR,,0.01,WeatherDisplay:10.37,2013-07-21 20:39:00,
2013-07-21 16:44:00,82.8,71.2,29.86,West,262,10.0,10.0,68,0.00,CLR,,0.01,WeatherDisplay:10.37,2013-07-21 20:44:00,
2013-07-21 16:49:00,82.2,69.7,29.86,WSW,253,7.0,7.0,66,0.00,CLR,,0.01,WeatherDisplay:10.37,2013-07-21 20:49:00,
2013-07-21 16:54:00,81.6,68.7,29.86,SW,222,5.8,5.8,65,0.00,CLR,,0.01,WeatherDisplay:10.37,2013-07-21 20:54:00,
2013-07-21 16:59:00,81.9,69.9,29.86,SW,234,7.0,7.0,67,0.00,CLR,,0.01,WeatherDisplay:10.37,2013-07-21 20:59:00,
2013-07-21 17:04:00,81.9,69.0,29.86,WSW,244,5.0,5.0,65,0.00,CLR,,0.01,WeatherDisplay:10.37,2013-07-21 21:04:00,
2013-07-21 17:09:00,82.1,70.1,29.86,WSW,258,10.4,10.4,67,0.00,CLR,,0.01,WeatherDisplay:10.37,2013-07-21 21:09:00,
2013-07-21 17:14:00,81.8,69.8,29.86,WSW,242,3.5,3.5,67,0.00,CLR,,0.01,WeatherDisplay:10.37,2013-07-21 21:14:00,
2013-07-21 17:19:00,81.6,69.6,29.86,SSW,213,8.1,8.1,67,0.00,CLR,,0.01,WeatherDisplay:10.37,2013-07-21 21:19:00,
2013-07-21 17:24:00,81.4,69.8,29.85,SSW,209,7.0,7.0,68,0.00,CLR,,0.01,WeatherDisplay:10.37,2013-07-21 21:24:00,
2013-07-21 17:29:00,81.7,69.7,29.85,SW,217,4.6,4.6,67,0.00,CLR,,0.01,WeatherDisplay:10.37,2013-07-21 21:29:00,
2013-07-21 17:34:00,81.4,69.4,29.85,West,260,6.0,6.0,67,0.00,CLR,,0.01,WeatherDisplay:10.37,2013-07-21 21:34:00,
2013-07-21 17:39:00,80.9,69.3,29.85,West,260,7.0,7.0,68,0.00,CLR,,0.01,WeatherDisplay:10.37,2013-07-21 21:39:00,
2013-07-21 17:44:00,80.5,69.8,29.85,SW,229,6.0,6.0,70,0.00,CLR,,0.01,WeatherDisplay:10.37,2013-07-21 21:44:00,
2013-07-21 17:49:00,80.7,69.6,29.85,SW,215,6.0,6.0,69,0.00,CLR,,0.01,WeatherDisplay:10.37,2013-07-21 21:49:00,
2013-07-21 17:54:00,80.6,69.5,29.85,SW,232,7.0,7.0,69,0.00,CLR,,0.01,WeatherDisplay:10.37,2013-07-21 21:54:00,
2013-07-21 17:59:00,80.7,69.6,29.85,WSW,246,5.0,5.0,69,0.00,CLR,,0.01,WeatherDisplay:10.37,2013-07-21 21:59:00,
2013-07-21 18:04:00,80.3,69.6,29.85,WSW,242,4.0,4.0,70,0.00,CLR,,0.01,WeatherDisplay:10.37,2013-07-21 22:04:00,
2013-07-21 18:09:00,80.3,69.6,29.85,SW,233,4.0,4.0,70,0.00,CLR,,0.01,WeatherDisplay:10.37,2013-07-21 22:09:00,
2013-07-21 18:14:00,80.2,69.5,29.85,SSW,213,4.0,4.0,70,0.00,CLR,,0.01,WeatherDisplay:10.37,2013-07-21 22:14:00,
2013-07-21 18:19:00,80.1,69.4,29.85,SW,231,5.0,5.0,70,0.00,CLR,,0.01,WeatherDisplay:10.37,2013-07-21 22:19:00,
2013-07-21 18:24:00,80.2,69.9,29.85,West,261,4.0,4.0,71,0.00,CLR,,0.01,WeatherDisplay:10.37,2013-07-21 22:24:00,
2013-07-21 18:29:00,80.2,69.9,29.85,SSW,205,4.0,4.0,71,0.00,CLR,,0.01,WeatherDisplay:10.37,2013-07-21 22:29:00,
2013-07-21 18:34:00,80.0,69.3,29.85,SW,232,4.0,4.0,70,0.00,CLR,,0.01,WeatherDisplay:10.37,2013-07-21 22:34:00,
2013-07-21 18:39:00,79.9,69.7,29.86,West,264,4.0,4.0,71,0.00,CLR,,0.01,WeatherDisplay:10.37,2013-07-21 22:39:00,
2013-07-21 18:44:00,80.1,69.8,29.86,SW,234,6.0,6.0,71,0.00,CLR,,0.01,WeatherDisplay:10.37,2013-07-21 22:44:00,
2013-07-21 18:49:00,80.3,69.6,29.86,SW,231,6.0,6.0,70,0.00,CLR,,0.01,WeatherDisplay:10.37,2013-07-21 22:49:00,
2013-07-21 18:54:00,80.2,69.9,29.86,SW,232,5.0,5.0,71,0.00,CLR,,0.01,WeatherDisplay:10.37,2013-07-21 22:54:00,
2013-07-21 18:59:00,80.1,69.8,29.86,West,261,3.5,3.5,71,0.00,CLR,,0.01,WeatherDisplay:10.37,2013-07-21 22:59:00,
2013-07-21 19:04:00,79.7,69.9,29.86,NE,47,4.6,4.6,72,0.00,CLR,,0.01,WeatherDisplay:10.37,2013-07-21 23:04:00,
2013-07-21 19:09:00,77.7,66.7,29.86,NE,40,4.0,4.0,69,0.00,CLR,,0.01,WeatherDisplay:10.37,2013-07-21 23:09:00,
2013-07-21 19:14:00,76.0,65.9,29.86,NNE,28,4.0,4.0,71,0.00,CLR,,0.01,WeatherDisplay:10.37,2013-07-21 23:14:00,
2013-07-21 19:19:00,74.8,65.2,29.86,NNE,33,4.6,4.6,72,0.00,CLR,,0.01,WeatherDisplay:10.37,2013-07-21 23:19:00,
2013-07-21 19:24:00,74.1,64.5,29.86,NE,38,4.0,4.0,72,0.00,CLR,,0.01,WeatherDisplay:10.37,2013-07-21 23:24:00,
2013-07-21 19:29:00,73.7,64.5,29.86,NE,44,4.6,4.6,73,0.00,CLR,,0.01,WeatherDisplay:10.37,2013-07-21 23:29:00,
2013-07-21 19:34:00,73.5,64.3,29.86,NE,56,4.0,4.0,73,0.00,CLR,,0.01,WeatherDisplay:10.37,2013-07-21 23:34:00,
2013-07-21 19:39:00,73.5,64.7,29.86,NE,44,4.0,4.0,74,0.00,CLR,,0.01,WeatherDisplay:10.37,2013-07-21 23:39:00,
2013-07-21 19:44:00,73.5,65.1,29.87,NE,49,3.5,3.5,75,0.00,CLR,,0.01,WeatherDisplay:10.37,2013-07-21 23:44:00,
2013-07-21 19:49:00,73.3,65.3,29.87,NNE,25,2.0,2.0,76,0.00,CLR,,0.01,WeatherDisplay:10.37,2013-07-21 23:49:00,
2013-07-21 19:54:00,73.1,65.1,29.87,NNE,25,1.2,1.2,76,0.00,CLR,,0.01,WeatherDisplay:10.37,2013-07-21 23:54:00,
2013-07-21 19:59:00,72.9,65.3,29.88,NNE,25,1.2,0.0,77,0.00,CLR,,0.01,WeatherDisplay:10.37,2013-07-21 23:59:00,
2013-07-21 20:04:00,72.7,65.1,29.87,ESE,107,2.3,2.3,77,0.00,CLR,,0.01,WeatherDisplay:10.37,2013-07-22 00:04:00,
2013-07-21 20:09:00,72.6,65.3,29.87,NE,38,3.5,3.5,78,0.00,CLR,,0.01,WeatherDisplay:10.37,2013-07-22 00:09:00,
2013-07-21 20:15:00,72.3,65.1,29.87,NE,40,1.2,1.2,78,0.00,CLR,,0.01,WeatherDisplay:10.37,2013-07-22 00:15:00,
2013-07-21 20:20:00,72.1,64.9,29.87,NE,39,2.0,2.0,78,0.00,CLR,,0.01,WeatherDisplay:10.37,2013-07-22 00:20:00,
2013-07-21 20:25:00,71.9,65.0,29.87,NNW,330,0.0,0.0,79,0.00,CLR,,0.01,WeatherDisplay:10.37,2013-07-22 00:25:00,
2013-07-21 20:30:00,71.7,64.8,29.87,North,360,0.0,0.0,79,0.00,CLR,,0.01,WeatherDisplay:10.37,2013-07-22 00:30:00,
2013-07-21 20:35:00,71.8,64.9,29.87,South,184,1.0,5.0,79,0.00,CLR,CLR,0.01,WeatherDisplay:10.37,2013-07-22 00:35:00,
2013-07-21 20:40:00,71.9,65.0,29.87,South,184,0.0,0.0,79,0.00,CLR,,0.01,WeatherDisplay:10.37,2013-07-22 00:40:00,
2013-07-21 20:45:00,71.9,65.0,29.87,South,184,0.0,0.0,79,0.00,CLR,,0.01,WeatherDisplay:10.37,2013-07-22 00:45:00,
2013-07-21 20:50:00,71.8,64.9,29.87,South,184,0.0,0.0,79,0.00,CLR,,0.01,WeatherDisplay:10.37,2013-07-22 00:50:00,
2013-07-21 20:55:00,71.5,65.0,29.88,South,184,2.3,2.3,80,0.00,CLR,,0.01,WeatherDisplay:10.37,2013-07-22 00:55:00,
2013-07-21 21:00:00,71.6,65.1,29.88,South,184,0.0,0.0,80,0.00,CLR,,0.01,WeatherDisplay:10.37,2013-07-22 01:00:00,
2013-07-21 21:05:00,71.5,65.0,29.87,South,184,0.0,0.0,80,0.00,CLR,,0.01,WeatherDisplay:10.37,2013-07-22 01:05:00,
2013-07-21 21:10:00,71.3,64.8,29.87,South,184,0.0,0.0,80,0.00,CLR,,0.01,WeatherDisplay:10.37,2013-07-22 01:10:00,
2013-07-21 21:15:00,71.3,64.8,29.87,South,184,0.0,0.0,80,0.00,CLR,,0.01,WeatherDisplay:10.37,2013-07-22 01:15:00,
2013-07-21 21:20:00,71.3,64.8,29.87,South,184,0.0,0.0,80,0.00,CLR,,0.01,WeatherDisplay:10.37,2013-07-22 01:20:00,
2013-07-21 21:25:00,71.3,64.8,29.87,SW,219,2.3,2.3,80,0.00,CLR,,0.01,WeatherDisplay:10.37,2013-07-22 01:25:00,
2013-07-21 21:30:00,71.3,65.2,29.87,SW,218,0.0,0.0,81,0.00,CLR,,0.01,WeatherDisplay:10.37,2013-07-22 01:30:00,
2013-07-21 21:35:00,71.0,64.9,29.87,South,174,2.3,2.3,81,0.00,CLR,,0.01,WeatherDisplay:10.37,2013-07-22 01:35:00,
2013-07-21 21:40:00,70.6,64.5,29.87,South,174,0.0,0.0,81,0.00,CLR,,0.01,WeatherDisplay:10.37,2013-07-22 01:40:00,
2013-07-21 21:45:00,70.5,64.7,29.88,South,173,0.0,0.0,82,0.00,CLR,,0.01,WeatherDisplay:10.37,2013-07-22 01:45:00,
2013-07-21 21:50:00,70.4,64.6,29.88,South,174,0.0,0.0,82,0.00,CLR,,0.01,WeatherDisplay:10.37,2013-07-22 01:50:00,
2013-07-21 21:55:00,70.3,64.5,29.88,South,173,0.0,0.0,82,0.00,CLR,,0.01,WeatherDisplay:10.37,2013-07-22 01:55:00,
2013-07-21 22:00:00,70.3,64.5,29.88,South,174,0.0,0.0,82,0.00,CLR,,0.01,WeatherDisplay:10.37,2013-07-22 02:00:00,
2013-07-21 22:05:00,70.5,64.7,29.88,South,174,0.0,0.0,82,0.00,CLR,,0.01,WeatherDisplay:10.37,2013-07-22 02:05:00,
2013-07-21 22:10:00,70.6,64.8,29.89,South,173,0.0,0.0,82,0.00,CLR,,0.01,WeatherDisplay:10.37,2013-07-22 02:10:00,
2013-07-21 22:15:00,70.5,64.7,29.89,South,174,2.3,2.3,82,0.00,CLR,,0.01,WeatherDisplay:10.37,2013-07-22 02:15:00,
2013-07-21 22:20:00,70.3,64.5,29.88,South,173,0.0,0.0,82,0.00,CLR,,0.01,WeatherDisplay:10.37,2013-07-22 02:20:00,
2013-07-21 22:25:00,70.5,64.7,29.88,South,173,0.0,0.0,82,0.00,CLR,,0.01,WeatherDisplay:10.37,2013-07-22 02:25:00,
2013-07-21 22:30:00,70.9,65.1,29.89,South,174,3.0,3.0,82,0.00,CLR,,0.01,WeatherDisplay:10.37,2013-07-22 02:30:00,
2013-07-21 22:35:00,71.2,65.0,29.89,South,175,1.0,3.0,81,0.00,CLR,CLR,0.01,WeatherDisplay:10.37,2013-07-22 02:35:00,
2013-07-21 22:40:00,71.4,64.9,29.89,South,175,2.0,2.0,80,0.00,CLR,,0.01,WeatherDisplay:10.37,2013-07-22 02:40:00,
2013-07-21 22:45:00,70.8,64.7,29.89,South,175,0.0,0.0,81,0.00,CLR,,0.01,WeatherDisplay:10.37,2013-07-22 02:45:00,
2013-07-21 22:50:00,70.3,64.5,29.89,SE,132,0.0,0.0,82,0.00,CLR,,0.01,WeatherDisplay:10.37,2013-07-22 02:50:00,
2013-07-21 22:55:00,70.4,64.6,29.89,SE,132,0.0,0.0,82,0.00,CLR,,0.01,WeatherDisplay:10.37,2013-07-22 02:55:00,
2013-07-21 23:00:00,70.4,64.6,29.89,SE,139,2.3,2.3,82,0.00,CLR,,0.01,WeatherDisplay:10.37,2013-07-22 03:00:00,
2013-07-21 23:05:00,70.1,64.7,29.89,South,178,2.3,2.3,83,0.00,CLR,,0.01,WeatherDisplay:10.37,2013-07-22 03:05:00,
2013-07-21 23:10:00,69.9,64.5,29.89,SE,141,0.0,3.0,83,0.00,CLR,CLR,0.01,WeatherDisplay:10.37,2013-07-22 03:10:00,
2013-07-21 23:15:00,70.0,64.6,29.89,SE,138,0.0,0.0,83,0.00,CLR,,0.01,WeatherDisplay:10.37,2013-07-22 03:15:00,
2013-07-21 23:20:00,69.9,64.5,29.89,SE,139,0.0,0.0,83,0.00,CLR,,0.01,WeatherDisplay:10.37,2013-07-22 03:20:00,
2013-07-21 23:25:00,69.4,64.4,29.89,SE,139,1.0,1.0,84,0.00,CLR,,0.01,WeatherDisplay:10.37,2013-07-22 03:25:00,
2013-07-21 23:30:00,69.2,64.2,29.89,SE,138,0.0,0.0,84,0.00,CLR,,0.01,WeatherDisplay:10.37,2013-07-22 03:30:00,
2013-07-21 23:35:00,69.2,64.2,29.89,SE,139,0.0,0.0,84,0.00,CLR,,0.01,WeatherDisplay:10.37,2013-07-22 03:35:00,
2013-07-21 23:40:00,69.3,64.6,29.89,SE,139,1.2,1.2,85,0.00,CLR,,0.01,WeatherDisplay:10.37,2013-07-22 03:40:00,
2013-07-21 23:45:00,69.7,64.6,29.89,SSE,157,1.2,0.0,84,0.00,CLR,,0.01,WeatherDisplay:10.37,2013-07-22 03:45:00,
2013-07-21 23:50:00,70.0,64.9,29.89,South,176,0.0,0.0,84,0.00,CLR,,0.01,WeatherDisplay:10.37,2013-07-22 03:50:00,
2013-07-21 23:55:00,70.5,64.7,29.89,South,179,3.0,3.0,82,0.00,CLR,,0.01,WeatherDisplay:10.37,2013-07-22 03:55:00,